Location: Zagreb
(45.8000°N, 16.0000°E)
Time: 00:41:28
(UTC+02:00)

Vanguard 1 - All Passes

Search period start: 12 August 2020 00:00
Search period end: 22 August 2020 00:00
Orbit: 649 x 3833 km, 34.3° (Epoch: 11 August)

Date Brightness Start Highest point End Pass type
(mag) Time Alt. Az. Time Alt. Az. Time Alt. Az.
12 Aug - 07:40:40 10° S 07:53:35 22° SE 08:08:17 10° E daylight
12 Aug - 09:56:31 10° SW 10:16:06 46° SSE 10:36:23 10° E daylight
12 Aug - 12:18:39 10° WSW 12:41:16 60° S 12:59:45 10° ESE daylight
12 Aug - 14:44:25 10° W 15:05:54 51° SSW 15:20:20 10° SE daylight
12 Aug - 17:13:09 10° W 17:27:09 25° SW 17:36:55 10° S daylight
13 Aug - 07:59:01 10° S 08:13:44 28° SE 08:30:58 10° E daylight
13 Aug - 10:16:44 10° SW 10:36:56 51° SSE 10:57:38 10° E daylight
13 Aug - 12:39:39 10° WSW 13:02:22 60° S 13:20:36 10° ESE daylight
13 Aug - 15:05:52 10° W 15:26:35 46° SSW 15:40:36 10° SE daylight
13 Aug - 17:35:50 10° W 17:47:07 19° SW 17:55:35 10° SSW daylight
14 Aug - 08:18:05 10° SSW 08:34:01 34° SE 08:53:01 10° E daylight
14 Aug - 10:37:11 10° SW 10:57:53 56° SSE 11:18:47 10° E daylight
14 Aug - 13:00:46 10° W 13:23:28 59° S 13:41:20 10° ESE daylight
14 Aug - 15:27:24 10° W 15:47:06 40° SW 16:00:38 10° SSE daylight
14 Aug - 17:59:51 10° W 18:06:57 13° WSW 18:12:53 10° SSW daylight
15 Aug - 06:25:37 10° SSE 06:33:30 14° ESE 06:42:30 10° E daylight
15 Aug - 08:37:39 10° SSW 08:54:28 40° SE 09:14:44 10° E daylight
15 Aug - 10:57:49 10° WSW 11:18:56 59° S 11:39:51 10° E daylight
15 Aug - 13:21:57 10° W 13:44:28 57° SSW 14:01:58 10° ESE daylight
15 Aug - 15:49:08 10° W 16:07:27 34° SW 16:20:22 10° SSE daylight
16 Aug - 06:42:28 10° SSE 06:53:24 20° SE 07:06:48 10° E daylight
16 Aug - 08:57:33 10° SW 09:15:03 46° SSE 09:36:14 10° E daylight
16 Aug - 11:18:37 10° WSW 11:40:02 60° S 12:00:51 10° ESE daylight
16 Aug - 13:43:13 10° W 14:05:23 53° SSW 14:22:26 10° SE daylight
16 Aug - 16:11:09 10° W 16:27:39 28° SW 16:39:43 10° S daylight
17 Aug - 07:00:48 10° S 07:13:25 26° SE 07:29:39 10° E daylight
17 Aug - 09:17:45 10° SW 09:35:48 51° SSE 09:57:35 10° E daylight
17 Aug - 11:39:32 10° WSW 12:01:10 61° S 12:21:47 10° ESE daylight
17 Aug - 14:04:34 10° W 14:26:09 48° SSW 14:42:44 10° SE daylight
17 Aug - 16:33:41 10° W 16:47:42 22° SW 16:58:29 10° S daylight
18 Aug - 07:19:54 10° SSW 07:33:35 32° SE 07:51:50 10° E daylight
18 Aug - 09:38:09 10° SW 09:56:41 55° SSE 10:18:50 10° E daylight
18 Aug - 12:00:33 10° W 12:22:17 60° S 12:42:36 10° ESE daylight
18 Aug - 14:26:02 10° W 14:46:46 42° SSW 15:02:47 10° SSE daylight
18 Aug - 16:57:13 10° W 17:07:36 16° SW 17:16:11 10° SSW daylight
19 Aug - 05:28:53 10° SE 05:33:55 12° ESE 05:39:35 10° ESE visible
19 Aug - 07:39:27 10° SSW 07:53:54 38° SE 08:13:39 10° E daylight
19 Aug - 09:58:44 10° WSW 10:17:40 58° SSE 10:40:01 10° E daylight
19 Aug - 12:21:38 10° W 12:43:22 57° SSW 13:03:18 10° ESE daylight
19 Aug - 14:47:40 10° W 15:07:13 36° SW 15:22:32 10° SSE daylight
19 Aug - 17:24:24 10° WSW 17:27:24 10° WSW 17:30:14 10° SW daylight
20 Aug - 05:45:06 10° SSE 05:53:43 18° SE 06:04:41 10° E daylight
20 Aug - 07:59:21 10° SW 08:14:23 44° SSE 08:35:15 10° E daylight
20 Aug - 10:19:27 10° WSW 10:38:45 60° S 11:01:07 10° ESE daylight
20 Aug - 12:42:48 10° W 13:04:21 54° SSW 13:23:49 10° SE daylight
20 Aug - 15:09:35 10° W 15:27:31 30° SW 15:41:53 10° S daylight
21 Aug - 06:03:20 10° S 06:13:38 24° SE 06:27:45 10° E daylight
21 Aug - 08:19:31 10° SW 08:35:02 50° SSE 08:56:42 10° E daylight
21 Aug - 10:40:16 10° WSW 10:59:52 61° S 11:22:08 10° ESE daylight
21 Aug - 13:04:02 10° W 13:25:12 49° SSW 13:44:08 10° SE daylight
21 Aug - 15:31:57 10° W 15:47:41 24° SW 16:00:39 10° S daylight
